Temperature
18 18 18 18 18 18 18 18 18 18 18 18 18 18 18 18 18 18 18 18 18 18 18 18 18 17 17 17 17 17 17 17 17 17 16 16 16 16 16 16 16 16 16
18 18 18 18 18 18 18 18 18 18 18 18 18 18 18 18 18 18 18 18 18 18 18 18 18 17 17 17 17 17 17 17 17 17 16 16 16 16 16 16 16 16 16
18 18 18 18 18 18 18 18 18 18 18 18 18 18 18 18 18 18 18 18 18 18 18 18 18 18 17 17 17 17 17 17 17 17 16 16 16 16 16 16 16 16 16
18 18 18 18 18 18 18 18 18 18 18 18 18 18 18 18 18 18 18 18 18 18 18 18 18 18 17 17 17 17 17 17 17 17 16 16 16 16 16 16 16 16 16
18 18 18 18 18 18 18 18 18 18 18 18 18 19 18 18 18 18 18 18 18 18 18 18 18 17 17 17 17 17 17 17 17 17 16 16 16 16 16 16 16 16 16
18 18 18 18 18 18 18 18 18 18 18 18 18 19 19 19 19 18 18 18 18 18 18 18 18 17 17 17 17 17 17 17 17 16 16 16 16 16 16 16 16 16 15
19 19 19 18 18 18 18 18 18 18 18 18 18 18 19 19 19 19 19 18 18 18 18 17 17 17 17 17 17 17 17 17 16 16 16 16 16 16 16 16 15 15 15
19 19 19 19 18 18 18 18 18 18 18 18 18 18 18 19 19 19 19 18 18 18 18 17 17 17 17 17 17 17 16 16 16 16 16 16 16 15 15 15 15 15 15
19 19 19 19 19 18 18 18 18 18 18 18 18 18 18 18 18 19 19 18 18 18 18 17 17 17 17 16 16 16 16 16 16 16 16 15 15 15 15 15 15 15 15
19 19 19 19 19 19 18 18 18 18 18 18 18 18 18 18 18 18 18 18 18 18 17 17 17 17 16 16 16 16 16 16 16 15 15 15 15 15 15 15 15 15 14
19 19 19 19 19 19 18 18 18 18 18 18 18 18 18 18 18 18 17 17 17 17 17 17 16 16 16 16 16 16 16 16 15 15 15 15 15 15 15 15 15 14 14
19 19 19 19 19 19 18 18 18 18 18 18 18 18 18 18 18 18 17 17 17 17 17 16 16 16 16 16 15 15 15 15 15 15 15 15 15 15 14 14 14 14 14
19 19 19 19 19 18 18 18 18 18 18 18 18 18 17 17 17 17 17 17 17 16 16 16 16 16 15 15 15 15 15 15 15 15 15 14 14 14 14 14 14 14 14
19 19 19 19 19 18 18 18 18 18 17 17 17 17 17 17 17 17 17 17 16 16 16 15 15 15 15 15 15 15 15 15 15 14 14 14 14 14 14 14 13 13 13
19 19 19 19 18 18 18 18 18 17 17 17 17 17 17 17 17 17 17 16 16 15 15 15 15 15 15 14 14 14 14 14 14 14 14 14 14 13 13 13 13 13 13
19 18 18 18 18 18 18 18 18 17 17 17 17 17 17 17 16 16 16 16 16 16 15 14 14 14 14 14 14 14 14 14 14 13 13 13 13 13 13 13 13 12 12
18 18 18 18 18 18 18 17 17 17 17 17 17 16 16 16 16 16 16 16 15 15 15 14 14 14 14 14 13 13 13 13 13 13 13 13 13 13 12 12 12 12 12
18 18 18 17 17 17 17 17 17 17 17 16 16 16 16 16 16 16 15 15 15 15 15 14 14 13 13 13 13 13 13 13 13 12 12 12 12 12 12 12 11 11 11
18 18 17 17 17 17 17 17 17 16 16 16 16 16 16 16 16 15 15 15 15 14 14 14 13 13 13 13 13 13 12 12 12 12 12 12 12 11 11 11 11 11 11
18 17 17 17 17 17 16 16 16 16 16 16 15 15 15 15 15 15 15 15 15 14 14 14 13 13 13 12 12 12 12 12 12 12 11 11 11 11 11 10 10 10 10
17 17 17 17 16 16 16 16 15 15 15 15 15 15 15 15 15 15 15 14 14 14 14 13 13 12 12 12 12 12 12 12 11 11 11 11 11 10 10 10 10 10 9
17 17 17 16 16 16 16 15 15 15 15 15 15 14 14 14 14 14 14 14 14 14 13 13 12 12 12 12 12 12 11 11 11 11 11 10 10 10 10 10 9 9 9
16 16 16 16 16 15 15 15 15 15 15 14 14 14 14 14 14 14 14 14 13 13 13 13 13 12 12 12 12 12 11 11 11 11 10 10 10 9 9 9 9 9 9
16 16 16 15 15 15 15 15 14 14 14 14 14 14 14 14 13 13 13 13 13 13 13 12 12 12 12 12 12 11 11 11 11 10 10 10 9 9 9 9 9 8 8
15 15 15 15 15 14 14 14 14 14 14 14 13 13 13 13 13 13 13 13 12 12 12 12 12 12 11 11 11 11 11 11 10 10 10 10 9 9 9 9 9 8 8
15 14 14 14 14 14 14 14 13 13 13 13 13 13 13 13 13 13 12 12 12 12 12 12 11 11 11 11 11 11 11 10 10 10 9 9 9 9 9 9 9 8 8
Wind_Speed
3 3 2 1 3 4 4 2 2 2 1 1 1 1 2 2 5 9 11 14 13 11 10 9 9 8 8 7 7 7 7 7 7 7 7 7 7 7 7 6 7 7 7
4 3 1 0 0 2 2 2 2 1 1 0 1 1 0 1 3 7 11 12 13 12 11 10 9 9 9 9 9 9 8 8 8 9 9 9 9 9 9 8 8 8 8
3 2 1 2 1 1 2 1 1 1 2 2 2 2 1 2 2 4 9 10 11 12 12 12 11 10 9 10 10 10 9 8 8 9 9 9 9 10 11 10 10 10 9
4 2 2 1 2 3 2 1 1 1 1 1 2 2 2 2 3 4 6 9 10 11 13 13 12 11 10 9 10 10 10 9 9 8 8 8 9 10 10 12 12 11 10
4 3 1 1 2 1 1 2 1 1 2 2 2 2 3 3 3 4 4 6 8 10 12 14 14 12 10 9 9 10 9 10 10 10 9 9 8 9 10 10 11 11 11
4 3 2 2 2 1 1 1 1 2 2 3 4 2 3 3 3 3 3 4 5 7 9 11 12 11 11 10 9 9 9 9 9 10 10 10 10 9 9 9 10 11 11
5 4 2 2 2 1 1 2 2 3 3 2 2 2 3 3 3 3 2 2 2 4 6 8 8 8 8 10 9 9 8 9 9 9 10 11 10 9 9 9 9 9 10
6 6 4 3 3 2 2 3 3 3 3 1 1 2 2 2 2 2 3 2 2 1 3 6 7 6 6 6 6 8 8 8 8 8 8 9 9 9 9 10 10 10 10
6 5 4 3 3 3 3 3 3 4 3 2 1 1 1 1 1 1 0 1 2 2 2 3 5 6 5 5 4 7 9 9 8 8 7 7 8 9 8 9 9 9 10
4 4 4 4 3 3 2 3 3 3 3 3 2 2 3 1 1 1 1 0 1 2 1 1 3 4 5 5 4 4 5 7 6 6 6 6 6 6 7 8 9 9 9
4 4 4 4 3 3 2 3 2 3 2 3 3 2 3 3 2 2 2 1 0 1 1 1 3 4 4 5 4 4 5 5 4 4 4 3 2 3 4 4 5 6 7
3 3 4 3 3 3 3 3 3 3 3 3 3 3 2 1 1 2 2 1 1 0 1 2 3 4 5 5 5 5 5 5 4 3 3 2 1 0 1 2 3 3 4
3 3 4 3 3 3 3 2 2 2 2 3 3 3 3 2 1 1 1 1 1 0 2 2 3 5 6 6 7 7 7 7 6 5 5 4 4 4 4 4 4 4 4
2 3 3 3 3 3 3 2 2 2 1 1 2 2 2 2 1 1 1 1 1 0 1 1 2 4 5 7 7 8 8 8 8 8 6 6 5 6 6 6 6 6 6
1 1 2 2 2 2 1 2 1 0 0 0 1 1 1 1 1 1 0 1 2 2 0 1 1 2 5 7 7 8 8 9 9 9 8 8 7 7 7 7 7 7 7
1 1 1 1 1 1 1 1 1 1 1 1 0 1 1 1 1 1 0 0 1 2 1 1 1 2 4 6 7 8 8 10 10 10 10 10 9 9 9 9 9 9 10
1 0 1 1 1 1 1 2 2 1 1 1 0 1 1 1 1 1 1 1 1 2 3 1 2 2 3 4 6 7 7 8 9 11 11 11 11 11 11 11 11 12 12
1 1 1 1 1 1 1 2 2 1 1 1 1 1 1 1 1 1 1 1 2 2 3 4 3 2 3 3 4 4 6 7 9 10 11 13 13 13 13 13 13 13 13
2 2 2 1 1 1 1 2 1 1 1 1 1 2 2 2 1 1 2 1 1 2 3 4 3 2 2 2 3 4 6 6 8 10 12 13 14 14 14 14 14 14 14
3 2 2 2 2 2 2 2 2 1 2 2 2 3 3 2 1 0 1 1 2 3 3 3 3 3 2 2 3 4 3 2 4 7 9 10 12 13 13 13 13 13 13
4 3 3 3 3 3 3 3 2 3 3 3 3 3 4 5 6 4 3 2 3 3 3 3 3 3 3 2 2 2 3 2 3 4 4 5 8 8 8 9 10 11 12
4 4 4 5 5 4 7 7 4 3 3 3 3 3 3 4 5 7 7 7 5 4 3 3 3 3 3 2 1 1 2 2 2 2 2 2 5 4 6 7 8 9 10
5 5 5 6 6 7 9 8 6 4 4 4 3 3 3 5 5 4 7 8 8 8 6 4 4 3 2 1 1 1 1 2 2 2 2 2 2 3 5 7 9 8 8
5 5 5 5 6 7 9 8 6 5 6 6 5 5 5 5 6 5 6 6 6 6 5 4 4 3 3 1 0 1 2 3 3 3 2 1 2 2 4 6 8 8 7
6 5 5 5 5 6 9 8 6 5 6 6 6 7 6 6 8 7 5 5 5 4 7 7 6 6 5 5 3 2 1 2 2 2 1 1 1 2 2 3 5 8 7
6 6 6 5 5 5 7 9 6 3 5 5 5 7 9 8 8 7 5 4 4 3 3 4 4 3 4 5 5 3 1 1 1 1 1 1 1 1 1 2 4 6 5
Wind_Direction
107 109 113 136 157 152 161 181 161 150 166 268 299 26 37 63 108 126 146 161 163 166 172 177 181 183 185 190 194 198 200 204 202 202 204 207 210 209 209 209 210 208 206
109 112 120 160 120 130 127 170 166 157 178 267 328 323 279 144 121 131 146 164 173 176 179 184 188 194 197 198 200 202 207 212 213 214 216 218 219 219 221 222 224 223 219
131 145 164 202 171 178 165 192 241 203 212 209 220 239 210 175 145 140 150 163 176 186 188 190 194 198 203 207 207 210 211 212 215 219 224 227 227 227 227 229 232 231 229
173 195 202 185 188 220 194 197 234 251 258 245 233 232 197 171 163 174 177 176 176 181 189 196 197 199 203 208 210 212 214 216 218 222 227 230 230 232 234 234 234 233 234
192 202 210 102 247 239 230 252 156 259 275 274 255 226 215 200 187 201 185 190 185 177 179 193 198 198 201 206 210 212 214 218 221 224 228 229 232 236 238 237 235 234 236
198 203 192 176 259 253 266 293 307 283 274 271 272 268 250 202 191 207 205 198 180 183 182 183 186 198 202 206 211 215 218 220 221 223 227 227 231 236 238 238 239 237 238
198 210 225 178 235 250 261 273 258 259 251 254 275 286 270 225 204 198 202 197 181 188 172 159 169 179 187 205 214 222 225 226 224 225 228 226 227 231 231 234 238 239 240
201 211 202 220 215 221 233 266 270 272 273 252 246 265 279 285 286 223 182 174 179 142 124 150 155 168 167 169 197 217 225 228 227 227 228 227 227 231 233 235 238 238 240
210 228 187 215 232 232 219 237 254 262 272 281 251 249 252 251 275 300 132 161 145 122 114 109 140 159 159 159 174 206 216 223 228 231 229 226 227 231 236 240 243 242 241
212 212 204 209 225 246 218 237 225 247 258 265 255 234 231 227 232 290 313 340 128 117 122 119 103 122 141 145 146 152 192 213 225 229 232 232 233 236 244 246 247 249 248
209 216 205 200 213 238 239 252 255 249 252 257 261 253 242 229 225 227 249 259 29 77 113 102 90 90 104 122 136 140 161 176 190 209 214 213 225 245 256 262 265 264 258
207 213 209 200 206 230 238 247 251 254 252 259 265 272 266 238 227 227 232 224 217 196 88 75 87 89 99 100 100 99 129 140 142 143 142 134 121 30 318 308 307 311 302
208 209 216 207 213 222 227 232 242 261 261 263 265 273 286 288 282 255 213 236 239 184 76 65 67 76 82 88 89 86 97 110 112 107 100 93 81 60 39 24 14 1 350
219 192 195 200 201 215 226 202 232 238 240 250 266 275 289 299 302 278 223 209 219 208 84 73 49 61 73 81 85 92 90 97 98 97 93 89 80 69 60 50 45 39 31
252 132 162 180 186 191 208 166 167 218 184 214 270 309 277 293 338 335 278 207 199 202 217 59 69 54 89 92 87 84 84 87 96 94 90 86 83 77 70 62 55 51 51
11 64 87 136 145 170 160 164 154 169 146 119 102 20 344 347 359 360 57 92 126 160 166 99 95 96 89 96 92 89 91 90 90 90 87 83 78 72 67 65 64 63 62
94 71 93 127 152 162 167 159 160 159 153 116 51 58 29 26 14 7 44 84 109 129 142 135 98 90 88 94 100 102 100 96 93 93 91 88 84 79 75 74 73 71 68
106 86 70 85 109 122 145 152 174 158 137 135 101 52 34 59 49 36 38 89 116 124 136 137 124 101 93 108 119 109 100 96 95 94 93 92 89 86 83 80 78 76 74
98 75 65 61 50 49 95 114 129 128 119 95 78 70 61 60 57 66 74 79 110 120 120 130 131 116 96 96 100 89 90 99 99 97 92 93 92 90 88 85 83 80 78
93 80 67 60 60 43 54 73 79 89 91 77 68 69 65 69 55 65 101 92 104 114 123 122 122 111 96 89 89 94 94 89 95 98 89 97 100 94 90 87 86 85 84
93 75 64 55 49 53 50 49 75 83 77 73 71 76 80 81 74 69 71 64 91 101 109 110 106 90 79 93 92 111 113 105 88 98 103 102 105 101 99 92 91 92 90
83 73 68 62 57 50 37 45 61 81 84 83 79 78 83 73 78 80 79 74 75 92 98 102 103 103 93 75 65 114 114 110 97 92 111 109 110 106 112 111 110 106 101
90 82 75 71 63 44 35 40 51 70 76 72 72 63 59 61 69 80 85 78 66 67 82 98 108 110 119 119 108 97 113 112 98 123 113 114 115 105 115 124 132 127 121
97 88 79 74 69 48 36 40 53 78 71 62 57 60 62 53 52 64 81 78 70 60 68 89 103 108 112 107 128 126 134 118 105 85 81 111 136 125 119 137 155 151 145
103 98 91 81 74 52 38 38 47 93 84 71 61 56 61 63 48 64 89 98 94 78 73 91 107 113 111 95 73 80 89 117 119 105 60 55 128 130 131 147 167 168 166
113 108 94 84 77 62 44 40 35 89 96 91 80 66 58 58 51 59 83 88 88 86 89 93 98 104 113 106 91 74 62 103 99 100 67 22 137 133 144 164 171 176 186
Height
1573 1573 1573 1574 1575 1575 1575 1576 1577 1577 1577 1578 1578 1579 1579 1579 1579 1579 1578 1579 1579 1579 1579 1580 1580 1580 1581 1581 1582 1582 1583 1583 1584 1585 1585 1586 1586 1587 1587 1588 1589 1589 1590
1573 1574 1574 1575 1575 1576 1576 1576 1577 1577 1578 1578 1578 1578 1579 1579 1579 1579 1578 1578 1579 1579 1579 1579 1579 1580 1580 1580 1581 1581 1582 1582 1583 1583 1584 1584 1585 1585 1586 1587 1587 1588 1589
1573 1574 1575 1575 1575 1576 1576 1577 1577 1577 1577 1577 1578 1578 1578 1578 1579 1579 1578 1578 1578 1578 1578 1579 1579 1579 1579 1579 1579 1580 1580 1581 1581 1582 1582 1583 1583 1583 1584 1585 1585 1586 1586
1573 1574 1575 1575 1575 1576 1576 1576 1577 1577 1577 1577 1577 1577 1577 1577 1578 1578 1578 1577 1577 1577 1577 1578 1578 1578 1578 1578 1578 1578 1578 1579 1579 1579 1580 1580 1581 1581 1582 1582 1583 1583 1584
1573 1574 1574 1574 1575 1575 1576 1576 1576 1576 1576 1576 1576 1576 1576 1576 1576 1577 1577 1577 1576 1576 1576 1576 1576 1576 1576 1576 1576 1576 1577 1577 1577 1577 1578 1578 1578 1579 1579 1580 1580 1581 1581
1572 1573 1573 1573 1574 1574 1575 1575 1574 1574 1574 1575 1575 1575 1575 1575 1575 1575 1575 1575 1575 1575 1574 1574 1574 1574 1574 1574 1575 1575 1575 1575 1575 1575 1575 1575 1576 1576 1576 1577 1577 1578 1578
1571 1571 1572 1572 1572 1573 1573 1573 1573 1573 1573 1573 1574 1573 1573 1573 1573 1573 1573 1573 1573 1573 1572 1572 1572 1572 1572 1572 1572 1572 1572 1572 1572 1572 1572 1573 1573 1573 1573 1573 1574 1574 1575
1570 1570 1570 1570 1571 1571 1571 1571 1571 1571 1572 1572 1572 1572 1572 1572 1571 1571 1571 1571 1571 1571 1571 1570 1570 1570 1569 1570 1570 1570 1570 1570 1570 1570 1570 1570 1570 1570 1570 1570 1570 1571 1571
1568 1568 1568 1568 1569 1569 1569 1569 1569 1569 1570 1570 1570 1571 1570 1570 1569 1570 1569 1569 1569 1569 1569 1568 1568 1568 1568 1567 1567 1567 1567 1567 1567 1567 1567 1567 1567 1567 1567 1567 1567 1567 1568
1566 1566 1566 1566 1566 1566 1567 1567 1567 1567 1567 1567 1568 1568 1568 1568 1568 1568 1568 1567 1567 1567 1567 1566 1566 1566 1565 1565 1565 1565 1564 1565 1564 1564 1564 1564 1564 1564 1564 1564 1564 1564 1564
1564 1564 1564 1564 1564 1564 1564 1565 1565 1564 1565 1565 1565 1565 1565 1566 1566 1566 1565 1566 1565 1565 1565 1564 1564 1564 1564 1564 1563 1563 1563 1563 1562 1562 1562 1562 1561 1561 1561 1561 1560 1560 1560
1561 1562 1562 1561 1561 1562 1562 1562 1562 1562 1561 1562 1562 1562 1563 1563 1563 1563 1563 1563 1563 1563 1563 1563 1562 1562 1563 1562 1562 1562 1561 1561 1561 1560 1560 1559 1559 1559 1558 1558 1557 1557 1557
1559 1559 1559 1559 1559 1559 1559 1559 1559 1559 1559 1559 1559 1559 1559 1560 1560 1561 1561 1561 1561 1562 1562 1562 1561 1561 1561 1561 1561 1561 1560 1560 1559 1559 1558 1558 1557 1557 1556 1556 1555 1554 1554
1557 1556 1557 1557 1557 1557 1557 1557 1557 1556 1556 1556 1557 1557 1557 1557 1557 1558 1558 1559 1559 1560 1560 1560 1560 1560 1560 1560 1560 1559 1559 1559 1558 1557 1557 1556 1555 1555 1554 1554 1553 1552 1551
1555 1555 1555 1555 1555 1555 1555 1555 1554 1554 1554 1554 1554 1554 1554 1554 1555 1555 1556 1556 1557 1556 1558 1559 1559 1559 1559 1558 1558 1558 1557 1557 1557 1556 1556 1555 1554 1553 1553 1552 1551 1550 1549
1553 1553 1553 1553 1553 1553 1553 1553 1552 1553 1553 1552 1552 1552 1552 1552 1553 1553 1553 1553 1554 1555 1555 1557 1557 1558 1558 1558 1558 1557 1557 1556 1556 1556 1555 1554 1553 1552 1551 1551 1550 1549 1548
1551 1551 1551 1551 1551 1551 1551 1551 1551 1551 1551 1550 1550 1551 1551 1551 1551 1551 1552 1552 1552 1553 1553 1555 1556 1557 1557 1557 1557 1556 1556 1555 1555 1555 1554 1553 1552 1551 1551 1550 1549 1548 1547
1548 1549 1549 1549 1549 1549 1549 1549 1549 1549 1549 1549 1549 1549 1549 1549 1549 1549 1550 1550 1551 1551 1552 1552 1554 1555 1556 1556 1556 1556 1556 1556 1555 1554 1554 1553 1552 1551 1550 1549 1548 1547 1546
1547 1547 1547 1547 1547 1547 1547 1547 1547 1547 1547 1547 1547 1547 1547 1547 1547 1548 1548 1549 1550 1550 1551 1551 1552 1554 1555 1555 1556 1556 1556 1556 1555 1555 1554 1553 1552 1551 1550 1549 1548 1547 1546
1545 1546 1546 1546 1546 1546 1546 1545 1546 1545 1545 1546 1546 1545 1546 1546 1546 1547 1547 1548 1549 1549 1550 1551 1552 1553 1554 1554 1555 1555 1555 1556 1555 1555 1554 1554 1553 1552 1551 1550 1549 1548 1547
1545 1545 1545 1545 1545 1544 1544 1544 1544 1544 1543 1544 1544 1544 1545 1545 1545 1546 1546 1547 1547 1548 1548 1549 1551 1552 1553 1553 1554 1554 1554 1555 1555 1555 1554 1554 1553 1552 1551 1550 1549 1548 1547
1544 1544 1544 1544 1544 1543 1543 1543 1544 1543 1543 1543 1544 1544 1544 1544 1545 1545 1545 1545 1546 1546 1547 1548 1549 1550 1551 1552 1553 1553 1554 1554 1554 1555 1554 1554 1553 1552 1551 1551 1550 1549 1548
1544 1544 1544 1544 1543 1544 1544 1543 1543 1543 1543 1543 1543 1543 1544 1544 1544 1544 1544 1545 1545 1545 1547 1548 1548 1549 1550 1551 1551 1552 1553 1553 1553 1553 1554 1553 1553 1552 1552 1551 1550 1550 1549
1543 1544 1544 1544 1544 1544 1544 1543 1543 1543 1543 1543 1543 1543 1543 1543 1543 1544 1544 1545 1546 1546 1547 1548 1548 1549 1550 1551 1551 1551 1552 1553 1553 1553 1553 1553 1553 1552 1552 1551 1550 1550 1549
1543 1544 1544 1544 1544 1544 1544 1544 1544 1543 1543 1543 1543 1543 1544 1544 1544 1544 1544 1545 1546 1547 1548 1548 1549 1549 1550 1550 1550 1550 1550 1551 1551 1552 1552 1552 1552 1551 1551 1551 1550 1550 1549
1544 1544 1544 1544 1544 1544 1545 1545 1545 1545 1544 1544 1544 1544 1545 1545 1545 1545 1545 1545 1546 1547 1548 1549 1549 1550 1550 1550 1550 1550 1550 1550 1550 1551 1551 1551 1551 1551 1550 1550 1550 1549 1548